TimeCDT,TemperatureF,Dew PointF,Humidity,Sea Level PressureIn,VisibilityMPH,Wind Direction,Wind SpeedMPH,Gust SpeedMPH,PrecipitationIn,Events,Conditions,WindDirDegrees,DateUTC
12:52 AM,32.0,26.1,79,30.34,10.0,WNW,4.6,-,N/A,,Overcast,290,2013-03-27 05:52:00
1:52 AM,30.9,26.1,82,30.34,10.0,West,3.5,-,N/A,,Overcast,280,2013-03-27 06:52:00
2:52 AM,30.0,26.1,85,30.34,10.0,West,4.6,-,N/A,,Overcast,270,2013-03-27 07:52:00
3:52 AM,30.0,26.1,85,30.33,10.0,West,4.6,-,N/A,,Overcast,280,2013-03-27 08:52:00
4:52 AM,28.9,26.1,89,30.34,8.0,West,5.8,-,N/A,,Mostly Cloudy,270,2013-03-27 09:52:00
5:52 AM,28.0,25.0,88,30.34,6.0,WNW,4.6,-,N/A,,Clear,290,2013-03-27 10:52:00
6:52 AM,28.0,25.0,88,30.35,7.0,WNW,4.6,-,N/A,,Clear,300,2013-03-27 11:52:00
7:52 AM,28.9,26.1,89,30.37,6.0,WNW,3.5,-,N/A,,Clear,290,2013-03-27 12:52:00
8:52 AM,33.1,26.1,75,30.37,10.0,WNW,5.8,-,N/A,,Clear,300,2013-03-27 13:52:00
9:52 AM,36.0,27.0,70,30.38,10.0,WNW,4.6,-,N/A,,Clear,300,2013-03-27 14:52:00
10:52 AM,39.0,23.0,53,30.38,10.0,NNW,5.8,-,N/A,,Clear,340,2013-03-27 15:52:00
11:52 AM,41.0,23.0,49,30.38,10.0,NNW,4.6,-,N/A,,Clear,330,2013-03-27 16:52:00
12:52 PM,41.0,21.0,45,30.37,10.0,Calm,Calm,-,N/A,,Clear,0,2013-03-27 17:52:00
1:52 PM,43.0,24.1,47,30.36,10.0,West,9.2,-,N/A,,Partly Cloudy,270,2013-03-27 18:52:00
2:52 PM,43.0,21.9,43,30.35,10.0,WNW,5.8,-,N/A,,Partly Cloudy,290,2013-03-27 19:52:00
3:52 PM,44.1,23.0,43,30.33,10.0,West,8.1,-,N/A,,Partly Cloudy,260,2013-03-27 20:52:00
4:52 PM,43.0,21.9,43,30.32,10.0,WNW,3.5,-,N/A,,Clear,300,2013-03-27 21:52:00
5:52 PM,43.0,24.1,47,30.32,10.0,NNW,6.9,-,N/A,,Clear,330,2013-03-27 22:52:00
6:52 PM,41.0,26.1,55,30.32,10.0,NNW,4.6,-,N/A,,Clear,340,2013-03-27 23:52:00
7:52 PM,37.0,25.0,62,30.33,10.0,North,3.5,-,N/A,,Clear,360,2013-03-28 00:52:00
8:52 PM,35.1,24.1,64,30.33,10.0,North,4.6,-,N/A,,Clear,360,2013-03-28 01:52:00
9:52 PM,33.1,23.0,66,30.35,10.0,Calm,Calm,-,N/A,,Clear,0,2013-03-28 02:52:00
10:52 PM,33.1,24.1,70,30.35,10.0,SW,3.5,-,N/A,,Clear,230,2013-03-28 03:52:00
11:52 PM,28.0,23.0,81,30.35,10.0,North,3.5,-,N/A,,Clear,360,2013-03-28 04:52:00